Change the Weather History Date:

Saturday, March 29, 2014

  Actual Average Record
Temperature  
Mean Temperature 64 °F -  
Max Temperature 72 °F 71 °F 82 °F (2007)
Min Temperature 55 °F 56 °F 35 °F (1955)
Growing Degree Days 14 (Base 50)    
Moisture  
Dew Point 55 °F    
Average Humidity 79    
Maximum Humidity 100    
Minimum Humidity 36    
Precipitation  
Precipitation 0.74 in - - ()
Sea Level Pressure  
Sea Level Pressure 29.99 in    
Wind  
Wind Speed 5 mph (NW)    
Max Wind Speed 14 mph    
Max Gust Speed 25 mph    
Visibility 9 miles    
Events Rain    
Averages and records for this station are not official NWS values.
T = Trace of Precipitation, MM = Missing Value Source: NWS Daily Summary

Daily Weather History Graph

Daily Weather History Graph

Search for Another Location

Airport or City:

Trip Planner

Search our weather history database for the weather conditions in past years. The results will help you decide how hot, cold, wet, or windy it might be!

Date:

Astronomy

Mar. 29, 2014 Rise Set
Actual Time 6:46 AM CDT 7:11 PM CDT
Civil Twilight 6:22 AM CDT 7:35 PM CDT
Nautical Twilight 5:54 AM CDT 8:03 PM CDT
Astronomical Twilight 5:25 AM CDT 8:32 PM CDT
Moon 5:50 AM CDT (3/29) 6:18 PM CDT (3/29)
Length of Visible Light 13h 12m
Length of Day
12h 24m
Waning Crescent, 2% of the Moon is Illuminated
Mar 29
Waning Crescent
Mar 30
New
Apr 7
First Quarter
Apr 15
Full
Apr 22
Last Quarter

Hourly Weather History & Observations

Time (CDT) Temp. Dew Point Humidity Pressure Visibility Wind Dir Wind Speed Gust Speed Precip Events Conditions
12:53 AM 62.1 °F 60.1 °F 93% 29.89 in 10.0 mi Calm Calm - N/A   Overcast
1:06 AM 61.0 °F 61.0 °F 100% 29.91 in 1.8 mi WNW 3.5 mph - 0.10 in Rain Heavy Rain
1:21 AM 61.0 °F 61.0 °F 100% 29.90 in 3.0 mi Calm Calm - 0.19 in Rain Light Rain
1:53 AM 62.1 °F 61.0 °F 96% 29.90 in 10.0 mi Calm Calm - 0.19 in   Overcast
2:18 AM 62.1 °F 61.0 °F 96% 29.93 in 10.0 mi NW 9.2 mph 21.9 mph N/A   Overcast
2:33 AM 62.1 °F 60.1 °F 93% 29.96 in 9.0 mi NW 9.2 mph 23.0 mph 0.01 in Rain Light Rain
2:41 AM 61.0 °F 60.1 °F 97% 29.96 in 1.8 mi NW 10.4 mph 17.3 mph 0.21 in Rain Heavy Rain
2:53 AM 61.0 °F 60.1 °F 97% 29.97 in 1.8 mi WNW 4.6 mph - 0.35 in Rain Heavy Rain
3:10 AM 60.1 °F 59.0 °F 96% 29.94 in 3.0 mi SE 4.6 mph - 0.10 in Rain Rain
3:53 AM 60.1 °F 59.0 °F 96% 29.86 in 5.0 mi East 9.2 mph - 0.18 in Rain Rain
4:46 AM 60.1 °F 59.0 °F 96% 29.90 in 10.0 mi SSW 3.5 mph - 0.02 in   Mostly Cloudy
4:53 AM 60.1 °F 59.0 °F 96% 29.91 in 10.0 mi Calm Calm - 0.02 in   Mostly Cloudy
5:53 AM 60.1 °F 59.0 °F 96% 29.93 in 10.0 mi SSW 4.6 mph - N/A   Partly Cloudy
6:20 AM 60.1 °F 59.0 °F 96% 29.93 in 10.0 mi West 5.8 mph - N/A   Mostly Cloudy
6:28 AM 60.1 °F 59.0 °F 96% 29.94 in 10.0 mi WSW 4.6 mph - N/A   Scattered Clouds
6:53 AM 59.0 °F 59.0 °F 100% 29.96 in 10.0 mi Calm Calm - N/A   Mostly Cloudy
7:23 AM 60.1 °F 60.1 °F 100% 29.97 in 9.0 mi Calm Calm - N/A   Overcast
7:53 AM 60.1 °F 60.1 °F 100% 29.98 in 10.0 mi West 6.9 mph - N/A   Overcast
8:35 AM 61.0 °F 59.0 °F 93% 29.97 in 10.0 mi WNW 4.6 mph - N/A   Overcast
8:53 AM 61.0 °F 59.0 °F 93% 29.98 in 10.0 mi NW 4.6 mph - N/A   Overcast
9:15 AM 64.0 °F 60.1 °F 87% 29.97 in 10.0 mi NW 6.9 mph - N/A   Scattered Clouds
9:53 AM 64.9 °F 59.0 °F 81% 29.99 in 10.0 mi NNW 12.7 mph 18.4 mph N/A   Scattered Clouds
10:00 AM 64.9 °F 57.9 °F 78% 29.98 in 10.0 mi NNW 13.8 mph 20.7 mph N/A   Mostly Cloudy
10:53 AM 64.0 °F 55.9 °F 75% 30.02 in 10.0 mi NNW 9.2 mph 17.3 mph N/A   Overcast
11:53 AM 66.0 °F 57.0 °F 73% 30.02 in 10.0 mi NW 9.2 mph - N/A   Overcast
12:53 PM 66.9 °F 55.9 °F 68% 30.02 in 10.0 mi NW 10.4 mph 23.0 mph N/A   Overcast
1:53 PM 70.0 °F 55.9 °F 61% 30.01 in 10.0 mi NW 11.5 mph 24.2 mph N/A   Mostly Cloudy
2:53 PM 71.1 °F 53.1 °F 53% 30.00 in 10.0 mi NW 12.7 mph 20.7 mph N/A   Partly Cloudy
3:53 PM 72.0 °F 50.0 °F 46% 30.00 in 10.0 mi NNW 13.8 mph 25.3 mph N/A   Clear
4:53 PM 71.1 °F 48.9 °F 45% 30.01 in 10.0 mi North 10.4 mph 25.3 mph N/A   Clear
5:53 PM 70.0 °F 42.1 °F 36% 30.02 in 10.0 mi North 13.8 mph 23.0 mph N/A   Clear
6:53 PM 64.9 °F 45.0 °F 48% 30.06 in 10.0 mi North 10.4 mph - N/A   Clear
7:53 PM 63.0 °F 43.0 °F 48% 30.09 in 10.0 mi North 5.8 mph - N/A   Clear
8:53 PM 61.0 °F 43.0 °F 52% 30.12 in 10.0 mi NW 4.6 mph - N/A   Clear
9:53 PM 60.1 °F 39.9 °F 47% 30.16 in 10.0 mi NNW 9.2 mph - N/A   Clear
10:53 PM 57.9 °F 39.0 °F 49% 30.18 in 10.0 mi NNW 8.1 mph - N/A   Clear
11:53 PM 55.9 °F 41.0 °F 57% 30.19 in 10.0 mi North 9.2 mph - N/A   Clear